SCP
0 0 0 0 0 0 0 0 0 0 0 0 0 0 0 0 0 0 0 0 0 0 0 0 0 0 0 0 0 0 0 0 0 0 0 0 0 0 0 0 0 0 0 0 0
0 0 0 0 0 0 0 0 0 0 0 0 0 0 0 0 0 0 0 0 0 0 0 0 0 0 0 0 0 0 0 0 0 0 -0 0 0 0 0 0 0 0 0 0 0
0 0 0 0 0 0 0 0 0 0 0 0 0 0 0 0 0 0 0 0 0 0 0 0 0 0 0 0 0 0 0 0 0 0 -0 0 0 0 0 0 0 0 0 0 0
0 0 0 0 0 0 0 0 0 0 0 0 0 0 0 0 0 0 0 0 0 0 0 0 0 0 0 0 0 0 0 0 0 0 0 0 0 -0 0 0 0 0 0 0 0
0 0 0 0 0 0 0 0 0 0 0 0 0 0 0 0 0 0 0 0 0 0 0 0 0 0 0 0 0 0 0 0 0 0 0 0 -0 -0 0 0 0 0 0 0 0
0 0 0 0 0 0 0 0 0 0 0 0 0 0 0 0 0 0 0 0 0 0 0 0 0 0 0 0 0 0 0 0 0 0 0 -0 -0 -0 0 -0 0 0 0 0 0
0 0 0 0 0 0 0 0 0 0 0 0 0 0 0 0 0 0 0 0 0 0 0 0 0 0 0 0 0 0 0 0 0 0 0 -0 0 0 0 0 0 0 0 0 0
0 0 0 0 0 0 0 0 0 0 0 0 0 0 0 0 0 0 0 0 0 0 0 0 0 0 0 0 0 0 0 0 0 0 0 0 0 -0 0 0 0 0 0 0 0
0 0 0 0 0 0 0 0 0 0 0 0 0 0 0 0 0 0 0 0 0 0 0 0 0 0 0 0 0 0 0 0 0 0 0 0 -0 -0 0 0 0 0 0 0 0
0 0 0 0 0 0 0 0 0 0 0 0 0 0 0 0 0 0 0 0 0 0 0 0 0 0 0 0 0 0 0 0 0 0 0 0 0 0 0 0 0 0 0 0 0
0 0 0 0 0 0 0 0 0 0 0 0 0 0 0 0 0 0 0 0 0 0 0 0 0 0 0 0 0 0 0 0 0 0 0 -0 0 0 -0 0 0 0 0 0 0
0 0 0 0 0 0 0 0 0 0 0 0 0 0 0 0 0 0 0 0 0 0 0 0 0 0 0 0 0 0 0 0 0 0 0 0 -0 -0 -0 0 -0 -0 0 0 0
0 0 0 0 0 0 0 0 0 0 0 0 0 0 0 0 0 0 0 0 0 0 0 0 0 0 0 0 0 0 0 0 0 0 0 0 -0 0 -0 0 0 0 0 0 0
0 0 0 0 0 0 0 0 0 0 -0 -0 0 0 0 0 0 0 0 0 0 0 0 0 0 0 0 0 0 0 0 0 0 0 0 0 0 0 0 -0 0 0 -0 0 0
0 0 0 0 0 0 0 0 0 0 0 0 0 0 0 0 0 0 0 0 0 0 0 0 0 0 0 0 0 0 0 0 0 0 0 0 0 0 0 -0 -0 0 -0 -0 0
0 0 0 0 0 0 0 0 0 0 0 0 0 0 0 0 0 0 0 0 0 0 0 0 0 0 0 0 0 0 0 0 0 0 0 0 0 0 0 -0 -0 -0 -0 -0 -0
0 0 0 0 0 0 0 0 0 0 0 0 0 0 0 0 0 0 0 0 0 0 0 0 0 0 0 0 0 0 0 0 0 0 0 0 0 0 0 0 0 -0 -0 -0 -0
0 0 0 0 0 0 0 0 0 0 0 0 0 0 0 0 0 0 0 0 0 0 0 0 0 0 0 0 0 0 0 0 0 0 0 0 0 0 0 0 0 0 -0 -0 -0
0 0 0 0 0 0 0 0 0 0 0 0 0 0 0 0 0 0 0 0 0 0 0 0 0 0 0 0 0 0 0 0 0 0 0 0 0 0 0 0 0 0 0 0 0
0 0 0 0 0 0 0 0 0 0 0 0 0 0 0 0 0 0 0 0 0 0 0 0 0 0 0 0 0 0 0 0 0 0 0 0 0 0 0 0 0 0 0 0 0
0 0 0 0 0 0 0 0 0 0 0 0 0 0 0 0 0 0 0 0 0 0 0 0 0 0 0 0 0 0 0 0 0 0 0 0 0 0 0 0 0 0 0 0 0
0 0 0 0 0 0 0 0 0 0 0 0 0 0 0 0 0 0 0 0 0 0 0 0 0 0 0 0 0 0 0 0 0 0 0 0 0 0 0 0 0 0 0 0 0
0 0 0 0 0 0 0 0 0 0 0 0 0 0 0 0 0 0 0 0 0 0 0 0 0 0 0 0 0 0 0 0 0 0 0 0 0 0 0 0 0 0 0 0 0
0 0 0 0 0 0 0 0 0 0 0 0 0 0 0 0 0 0 0 0 0 0 0 0 0 0 0 0 0 0 0 0 0 0 0 0 0 0 0 0 0 0 0 0 0
0 0 0 0 0 0 0 0 0 0 0 0 0 0 0 0 0 0 0 0 0 0 0 0 0 0 0 0 0 0 0 0 0 0 0 0 0 0 0 0 0 0 0 0 0
0 0 0 0 0 0 0 0 0 0 0 0 0 0 0 0 0 0 0 0 0 0 0 0 0 0 0 0 0 0 0 0 0 0 0 0 0 0 0 0 0 0 0 0 0
0 0 0 0 0 0 0 0 0 0 0 0 0 0 0 0 0 0 0 0 0 0 0 0 0 0 0 0 0 0 -0 0 0 0 0 0 -0 0 0 0 0 0 0 0 0
Wind_Speed_500mb
33 32 26 24 14 14 15 16 18 18 18 16 15 14 9 7 6 6 7 5 4 3 6 13 17 15 10 7 3 1 8 3 6 12 9 16 6 8 6 7 5 8 8 10 23
26 30 29 19 21 15 15 15 15 17 16 16 15 14 13 8 11 14 9 7 5 7 12 16 19 11 5 3 3 7 7 9 1 3 9 16 9 15 6 4 5 14 7 15 24
19 23 28 23 17 19 16 14 14 15 17 15 15 14 13 10 8 7 9 6 5 11 15 13 15 7 4 4 6 4 5 9 3 9 20 17 10 9 8 5 16 17 15 20 25
21 20 23 23 22 19 19 17 13 14 14 16 15 14 13 8 5 2 4 5 6 12 13 16 14 9 5 5 5 9 8 7 8 7 9 10 7 3 13 10 13 9 14 19 24
22 23 20 22 23 23 22 20 17 13 14 14 16 14 10 8 11 10 7 6 8 14 17 20 20 8 9 9 7 7 5 7 11 10 9 5 8 10 13 18 13 10 16 20 23
28 29 24 20 21 27 23 25 20 15 12 13 13 15 9 8 8 9 8 8 11 16 19 20 10 9 14 6 5 8 11 11 7 5 2 2 5 3 10 28 15 16 18 22 24
32 25 29 27 26 26 28 24 21 17 14 11 12 15 17 18 10 6 8 10 13 19 20 21 17 11 15 9 15 23 6 3 8 7 4 1 10 14 13 25 19 18 21 22 21
35 33 26 28 31 26 26 23 21 19 17 11 10 12 12 15 16 18 13 11 14 18 17 20 18 15 7 25 10 4 5 3 5 12 3 3 14 4 27 27 22 21 25 23 21
37 31 30 23 24 24 25 23 28 22 20 16 9 9 10 11 15 17 15 13 13 18 24 23 22 10 13 10 8 11 5 6 5 19 6 7 10 8 31 30 28 27 28 24 20
36 42 36 30 21 29 29 22 27 19 20 18 14 10 14 7 11 19 21 20 11 24 25 14 7 7 5 6 9 12 8 8 8 10 8 6 22 14 31 31 37 32 30 27 21
32 32 33 41 28 19 30 22 14 10 22 17 11 7 8 8 10 19 25 21 20 10 9 9 7 14 22 13 5 11 6 7 3 3 6 13 21 22 43 41 50 42 34 30 22
27 33 28 35 24 21 24 14 16 9 17 34 33 33 25 14 10 21 30 19 14 11 10 7 13 15 12 14 8 7 5 6 5 5 4 5 26 25 21 28 56 55 40 34 24
24 32 29 25 22 30 26 22 16 12 8 16 49 38 29 34 18 25 41 18 10 11 14 12 4 15 12 11 11 6 9 8 8 2 5 10 17 11 4 28 38 51 41 32 24
23 22 28 24 30 35 33 21 20 10 4 10 13 15 26 23 11 26 46 17 9 20 15 9 7 11 7 9 10 8 11 10 7 5 5 1 9 12 5 10 11 40 42 36 28
24 26 31 26 23 33 31 24 23 11 9 4 7 4 17 19 27 21 49 20 11 11 12 8 15 10 7 8 13 9 8 10 3 5 5 2 3 16 2 12 17 27 44 39 33
32 27 38 27 40 41 27 24 25 4 15 7 5 8 8 5 4 11 15 12 11 6 9 4 1 3 6 4 2 13 11 13 9 5 4 7 9 12 10 14 8 16 48 45 41
36 30 40 42 24 38 35 39 6 12 7 8 8 8 6 9 8 9 12 12 13 10 6 5 2 2 8 11 9 7 11 4 6 5 10 1 6 19 13 15 13 26 59 55 46
34 35 43 48 29 48 64 4 14 12 15 6 9 9 11 9 5 10 13 12 13 6 7 14 8 16 10 9 13 11 11 10 13 8 5 5 13 13 10 13 17 25 61 55 50
34 40 42 55 44 67 31 10 23 17 14 19 8 8 8 7 10 9 15 11 12 18 12 12 6 4 3 1 6 12 11 6 11 5 5 8 14 18 5 4 12 35 57 60 53
35 36 47 39 45 67 13 32 17 18 15 9 25 14 17 14 12 15 19 12 12 22 8 11 7 3 0 1 2 7 4 5 4 7 8 9 11 13 11 17 14 20 50 60 52
32 18 13 49 41 58 26 25 16 26 24 15 17 12 12 17 13 11 9 8 14 18 35 9 6 2 3 14 15 6 6 6 4 8 10 4 13 14 19 26 32 30 65 67 61
30 9 16 42 24 16 32 21 16 20 26 17 11 9 17 18 14 16 16 10 4 9 19 11 10 9 14 7 6 4 11 12 9 11 6 3 12 7 11 18 35 41 67 68 63
16 22 25 54 20 32 16 17 12 22 24 18 19 9 8 15 7 10 13 2 4 9 17 13 7 6 10 8 5 11 12 9 6 5 14 12 11 2 8 10 44 52 68 69 65
16 6 16 45 43 17 39 40 34 14 19 11 13 13 11 8 2 15 12 3 6 13 4 9 2 12 20 6 9 14 17 27 13 7 9 13 8 10 15 15 20 51 71 73 71
21 13 18 12 26 27 5 9 37 15 14 42 2 19 21 12 11 11 8 6 1 15 7 12 11 7 10 1 4 9 12 34 36 36 23 18 19 18 18 20 30 55 67 70 73
27 9 21 8 5 25 32 10 27 52 21 45 39 47 39 24 23 20 18 10 10 5 9 9 9 8 8 9 6 12 18 26 40 42 20 15 13 18 3 19 27 52 63 72 81
40 46 13 15 8 9 8 22 17 26 24 53 50 16 24 37 17 5 37 27 21 21 15 9 9 7 9 3 4 25 43 30 18 30 43 39 52 7 14 18 43 57 73 85 89
Wind_Direction_500mb
355 360 8 349 356 356 350 342 337 339 339 334 328 320 314 288 288 266 265 269 275 211 154 145 150 153 148 153 76 155 64 169 161 154 169 174 142 172 160 163 180 202 218 288 304
344 350 357 7 348 355 357 345 338 335 335 332 325 319 312 301 269 264 251 276 260 192 165 154 149 147 107 96 26 78 109 193 267 136 164 163 180 170 164 168 207 188 229 303 303
329 338 349 354 4 350 350 355 340 336 331 328 323 316 307 309 287 241 224 250 239 198 186 170 160 145 99 94 29 64 155 163 91 78 141 150 149 177 172 203 213 218 276 309 319
305 317 335 344 2 2 353 347 343 335 333 326 318 314 306 286 223 147 222 251 214 192 194 180 171 158 102 116 81 91 36 152 143 92 123 143 168 215 220 235 232 259 293 312 317
286 294 312 315 328 358 5 352 339 334 330 327 318 311 299 265 255 248 271 249 211 187 182 177 174 157 142 121 99 93 156 95 125 120 123 173 222 228 235 218 213 254 290 305 308
263 277 284 306 305 314 335 350 337 325 323 322 317 308 290 257 253 261 254 236 218 197 186 174 190 187 118 84 106 126 124 129 146 133 174 223 242 201 241 213 203 256 278 298 312
260 278 289 286 297 310 304 327 329 318 309 311 311 302 282 257 249 242 244 236 219 198 190 186 160 174 136 100 119 132 93 15 208 201 204 292 270 233 223 183 216 244 259 283 302
260 273 264 278 277 299 310 299 320 320 300 290 294 292 259 258 244 245 233 214 193 191 181 183 177 145 108 122 80 64 53 113 198 168 197 147 268 259 188 193 222 232 247 272 293
244 252 263 276 270 295 296 309 282 310 297 283 266 249 258 254 241 220 202 186 169 181 172 159 162 106 125 97 37 10 206 198 265 202 133 179 267 264 197 206 228 235 240 262 284
253 247 251 267 271 278 280 297 284 268 285 277 236 265 235 226 223 204 191 168 145 148 150 156 111 87 61 102 206 192 207 230 233 215 185 230 259 268 215 218 234 239 236 250 275
255 250 250 247 255 284 285 287 286 276 221 221 267 259 159 191 218 201 191 178 155 166 156 180 125 199 203 186 141 142 170 189 229 198 195 234 267 253 241 239 241 236 234 241 260
266 246 258 253 249 271 273 244 240 238 288 230 257 246 242 206 195 201 188 182 178 189 138 60 225 215 175 171 140 112 141 245 318 199 180 339 274 253 225 230 227 224 227 232 243
260 246 244 258 252 250 254 245 252 252 266 270 232 238 221 212 207 204 188 194 188 183 184 164 250 146 134 155 158 172 183 197 204 151 240 315 292 313 239 236 226 220 228 224 231
279 256 231 239 241 242 240 245 235 237 297 232 209 219 202 181 218 203 193 189 215 195 167 228 153 159 134 177 149 195 192 149 166 100 223 115 276 294 276 258 207 207 211 208 217
266 247 223 212 229 224 229 222 202 168 279 147 177 194 179 193 147 180 184 183 199 181 136 229 162 155 159 206 173 205 129 140 164 114 32 254 89 269 35 260 231 205 203 207 211
256 248 224 216 230 229 208 192 152 194 231 197 169 163 151 188 108 118 166 178 149 113 45 107 165 166 145 90 99 142 80 45 40 69 3 229 151 276 201 209 206 194 207 205 203
240 243 229 238 217 217 208 152 115 229 344 221 195 174 194 174 137 149 173 185 161 119 189 34 189 278 150 86 24 85 96 29 347 0 218 288 140 249 252 225 210 193 196 200 198
244 245 233 244 223 193 170 111 200 219 214 183 143 129 193 164 199 161 124 207 240 109 120 157 252 177 184 200 180 176 170 160 200 200 228 345 231 249 225 293 226 208 192 190 194
258 247 237 235 235 182 177 191 202 182 173 147 104 116 235 218 149 151 176 200 225 183 185 160 238 60 93 141 152 185 203 169 108 48 50 214 280 299 192 70 130 158 180 189 193
260 258 247 240 236 191 204 220 201 172 140 138 187 174 178 194 165 176 172 204 214 189 229 205 106 14 309 274 254 184 167 112 353 135 243 268 277 240 217 206 183 160 184 192 194
247 238 211 226 206 186 206 220 209 190 155 156 188 157 194 174 178 187 203 273 207 193 187 183 113 15 110 209 191 159 199 207 143 165 176 205 256 217 209 192 190 190 189 193 195
230 223 204 188 194 194 211 192 177 173 184 216 145 139 176 175 170 179 199 244 138 172 186 192 126 173 201 269 241 251 209 174 148 210 224 194 275 190 208 189 186 191 194 195 199
236 215 194 191 217 221 217 213 192 166 192 173 189 165 160 173 159 198 175 191 187 155 174 185 200 112 332 336 345 220 207 198 126 67 196 147 255 228 245 216 205 187 197 197 198
234 219 215 206 233 221 222 223 211 228 183 169 159 133 123 168 171 186 205 133 300 116 126 71 200 221 213 194 148 195 198 193 164 154 183 218 253 255 241 220 194 194 199 197 198
220 218 191 200 230 241 264 218 209 190 240 179 109 185 168 162 160 206 181 122 328 115 111 140 242 237 261 299 202 236 204 196 205 214 202 225 213 244 230 216 201 199 197 197 201
231 241 184 180 175 204 232 247 222 219 182 194 209 202 187 189 188 184 151 190 178 93 173 190 203 146 281 320 315 278 231 206 212 226 257 256 269 233 305 203 192 199 197 200 205
219 241 236 175 160 170 220 227 275 230 222 214 213 149 195 208 151 152 175 180 158 165 167 165 150 122 255 58 84 277 235 187 200 216 213 228 233 166 219 207 205 206 206 206 209
Wind_Speed_850mb
33 32 26 24 14 14 15 16 18 18 18 16 15 14 9 7 6 6 7 5 4 3 6 13 17 15 10 7 3 1 8 3 6 12 9 16 6 8 6 7 5 8 8 10 23
26 30 29 19 21 15 15 15 15 17 16 16 15 14 13 8 11 14 9 7 5 7 12 16 19 11 5 3 3 7 7 9 1 3 9 16 9 15 6 4 5 14 7 15 24
19 23 28 23 17 19 16 14 14 15 17 15 15 14 13 10 8 7 9 6 5 11 15 13 15 7 4 4 6 4 5 9 3 9 20 17 10 9 8 5 16 17 15 20 25
21 20 23 23 22 19 19 17 13 14 14 16 15 14 13 8 5 2 4 5 6 12 13 16 14 9 5 5 5 9 8 7 8 7 9 10 7 3 13 10 13 9 14 19 24
22 23 20 22 23 23 22 20 17 13 14 14 16 14 10 8 11 10 7 6 8 14 17 20 20 8 9 9 7 7 5 7 11 10 9 5 8 10 13 18 13 10 16 20 23
28 29 24 20 21 27 23 25 20 15 12 13 13 15 9 8 8 9 8 8 11 16 19 20 10 9 14 6 5 8 11 11 7 5 2 2 5 3 10 28 15 16 18 22 24
32 25 29 27 26 26 28 24 21 17 14 11 12 15 17 18 10 6 8 10 13 19 20 21 17 11 15 9 15 23 6 3 8 7 4 1 10 14 13 25 19 18 21 22 21
35 33 26 28 31 26 26 23 21 19 17 11 10 12 12 15 16 18 13 11 14 18 17 20 18 15 7 25 10 4 5 3 5 12 3 3 14 4 27 27 22 21 25 23 21
37 31 30 23 24 24 25 23 28 22 20 16 9 9 10 11 15 17 15 13 13 18 24 23 22 10 13 10 8 11 5 6 5 19 6 7 10 8 31 30 28 27 28 24 20
36 42 36 30 21 29 29 22 27 19 20 18 14 10 14 7 11 19 21 20 11 24 25 14 7 7 5 6 9 12 8 8 8 10 8 6 22 14 31 31 37 32 30 27 21
32 32 33 41 28 19 30 22 14 10 22 17 11 7 8 8 10 19 25 21 20 10 9 9 7 14 22 13 5 11 6 7 3 3 6 13 21 22 43 41 50 42 34 30 22
27 33 28 35 24 21 24 14 16 9 17 34 33 33 25 14 10 21 30 19 14 11 10 7 13 15 12 14 8 7 5 6 5 5 4 5 26 25 21 28 56 55 40 34 24
24 32 29 25 22 30 26 22 16 12 8 16 49 38 29 34 18 25 41 18 10 11 14 12 4 15 12 11 11 6 9 8 8 2 5 10 17 11 4 28 38 51 41 32 24
23 22 28 24 30 35 33 21 20 10 4 10 13 15 26 23 11 26 46 17 9 20 15 9 7 11 7 9 10 8 11 10 7 5 5 1 9 12 5 10 11 40 42 36 28
24 26 31 26 23 33 31 24 23 11 9 4 7 4 17 19 27 21 49 20 11 11 12 8 15 10 7 8 13 9 8 10 3 5 5 2 3 16 2 12 17 27 44 39 33
32 27 38 27 40 41 27 24 25 4 15 7 5 8 8 5 4 11 15 12 11 6 9 4 1 3 6 4 2 13 11 13 9 5 4 7 9 12 10 14 8 16 48 45 41
36 30 40 42 24 38 35 39 6 12 7 8 8 8 6 9 8 9 12 12 13 10 6 5 2 2 8 11 9 7 11 4 6 5 10 1 6 19 13 15 13 26 59 55 46
34 35 43 48 29 48 64 4 14 12 15 6 9 9 11 9 5 10 13 12 13 6 7 14 8 16 10 9 13 11 11 10 13 8 5 5 13 13 10 13 17 25 61 55 50
34 40 42 55 44 67 31 10 23 17 14 19 8 8 8 7 10 9 15 11 12 18 12 12 6 4 3 1 6 12 11 6 11 5 5 8 14 18 5 4 12 35 57 60 53
35 36 47 39 45 67 13 32 17 18 15 9 25 14 17 14 12 15 19 12 12 22 8 11 7 3 0 1 2 7 4 5 4 7 8 9 11 13 11 17 14 20 50 60 52
32 18 13 49 41 58 26 25 16 26 24 15 17 12 12 17 13 11 9 8 14 18 35 9 6 2 3 14 15 6 6 6 4 8 10 4 13 14 19 26 32 30 65 67 61
30 9 16 42 24 16 32 21 16 20 26 17 11 9 17 18 14 16 16 10 4 9 19 11 10 9 14 7 6 4 11 12 9 11 6 3 12 7 11 18 35 41 67 68 63
16 22 25 54 20 32 16 17 12 22 24 18 19 9 8 15 7 10 13 2 4 9 17 13 7 6 10 8 5 11 12 9 6 5 14 12 11 2 8 10 44 52 68 69 65
16 6 16 45 43 17 39 40 34 14 19 11 13 13 11 8 2 15 12 3 6 13 4 9 2 12 20 6 9 14 17 27 13 7 9 13 8 10 15 15 20 51 71 73 71
21 13 18 12 26 27 5 9 37 15 14 42 2 19 21 12 11 11 8 6 1 15 7 12 11 7 10 1 4 9 12 34 36 36 23 18 19 18 18 20 30 55 67 70 73
27 9 21 8 5 25 32 10 27 52 21 45 39 47 39 24 23 20 18 10 10 5 9 9 9 8 8 9 6 12 18 26 40 42 20 15 13 18 3 19 27 52 63 72 81
40 46 13 15 8 9 8 22 17 26 24 53 50 16 24 37 17 5 37 27 21 21 15 9 9 7 9 3 4 25 43 30 18 30 43 39 52 7 14 18 43 57 73 85 89
Wind_Direction_850mb
355 360 8 349 356 356 350 342 337 339 339 334 328 320 314 288 288 266 265 269 275 211 154 145 150 153 148 153 76 155 64 169 161 154 169 174 142 172 160 163 180 202 218 288 304
344 350 357 7 348 355 357 345 338 335 335 332 325 319 312 301 269 264 251 276 260 192 165 154 149 147 107 96 26 78 109 193 267 136 164 163 180 170 164 168 207 188 229 303 303
329 338 349 354 4 350 350 355 340 336 331 328 323 316 307 309 287 241 224 250 239 198 186 170 160 145 99 94 29 64 155 163 91 78 141 150 149 177 172 203 213 218 276 309 319
305 317 335 344 2 2 353 347 343 335 333 326 318 314 306 286 223 147 222 251 214 192 194 180 171 158 102 116 81 91 36 152 143 92 123 143 168 215 220 235 232 259 293 312 317
286 294 312 315 328 358 5 352 339 334 330 327 318 311 299 265 255 248 271 249 211 187 182 177 174 157 142 121 99 93 156 95 125 120 123 173 222 228 235 218 213 254 290 305 308
263 277 284 306 305 314 335 350 337 325 323 322 317 308 290 257 253 261 254 236 218 197 186 174 190 187 118 84 106 126 124 129 146 133 174 223 242 201 241 213 203 256 278 298 312
260 278 289 286 297 310 304 327 329 318 309 311 311 302 282 257 249 242 244 236 219 198 190 186 160 174 136 100 119 132 93 15 208 201 204 292 270 233 223 183 216 244 259 283 302
260 273 264 278 277 299 310 299 320 320 300 290 294 292 259 258 244 245 233 214 193 191 181 183 177 145 108 122 80 64 53 113 198 168 197 147 268 259 188 193 222 232 247 272 293
244 252 263 276 270 295 296 309 282 310 297 283 266 249 258 254 241 220 202 186 169 181 172 159 162 106 125 97 37 10 206 198 265 202 133 179 267 264 197 206 228 235 240 262 284
253 247 251 267 271 278 280 297 284 268 285 277 236 265 235 226 223 204 191 168 145 148 150 156 111 87 61 102 206 192 207 230 233 215 185 230 259 268 215 218 234 239 236 250 275
255 250 250 247 255 284 285 287 286 276 221 221 267 259 159 191 218 201 191 178 155 166 156 180 125 199 203 186 141 142 170 189 229 198 195 234 267 253 241 239 241 236 234 241 260
266 246 258 253 249 271 273 244 240 238 288 230 257 246 242 206 195 201 188 182 178 189 138 60 225 215 175 171 140 112 141 245 318 199 180 339 274 253 225 230 227 224 227 232 243
260 246 244 258 252 250 254 245 252 252 266 270 232 238 221 212 207 204 188 194 188 183 184 164 250 146 134 155 158 172 183 197 204 151 240 315 292 313 239 236 226 220 228 224 231
279 256 231 239 241 242 240 245 235 237 297 232 209 219 202 181 218 203 193 189 215 195 167 228 153 159 134 177 149 195 192 149 166 100 223 115 276 294 276 258 207 207 211 208 217
266 247 223 212 229 224 229 222 202 168 279 147 177 194 179 193 147 180 184 183 199 181 136 229 162 155 159 206 173 205 129 140 164 114 32 254 89 269 35 260 231 205 203 207 211
256 248 224 216 230 229 208 192 152 194 231 197 169 163 151 188 108 118 166 178 149 113 45 107 165 166 145 90 99 142 80 45 40 69 3 229 151 276 201 209 206 194 207 205 203
240 243 229 238 217 217 208 152 115 229 344 221 195 174 194 174 137 149 173 185 161 119 189 34 189 278 150 86 24 85 96 29 347 0 218 288 140 249 252 225 210 193 196 200 198
244 245 233 244 223 193 170 111 200 219 214 183 143 129 193 164 199 161 124 207 240 109 120 157 252 177 184 200 180 176 170 160 200 200 228 345 231 249 225 293 226 208 192 190 194
258 247 237 235 235 182 177 191 202 182 173 147 104 116 235 218 149 151 176 200 225 183 185 160 238 60 93 141 152 185 203 169 108 48 50 214 280 299 192 70 130 158 180 189 193
260 258 247 240 236 191 204 220 201 172 140 138 187 174 178 194 165 176 172 204 214 189 229 205 106 14 309 274 254 184 167 112 353 135 243 268 277 240 217 206 183 160 184 192 194
247 238 211 226 206 186 206 220 209 190 155 156 188 157 194 174 178 187 203 273 207 193 187 183 113 15 110 209 191 159 199 207 143 165 176 205 256 217 209 192 190 190 189 193 195
230 223 204 188 194 194 211 192 177 173 184 216 145 139 176 175 170 179 199 244 138 172 186 192 126 173 201 269 241 251 209 174 148 210 224 194 275 190 208 189 186 191 194 195 199
236 215 194 191 217 221 217 213 192 166 192 173 189 165 160 173 159 198 175 191 187 155 174 185 200 112 332 336 345 220 207 198 126 67 196 147 255 228 245 216 205 187 197 197 198
234 219 215 206 233 221 222 223 211 228 183 169 159 133 123 168 171 186 205 133 300 116 126 71 200 221 213 194 148 195 198 193 164 154 183 218 253 255 241 220 194 194 199 197 198
220 218 191 200 230 241 264 218 209 190 240 179 109 185 168 162 160 206 181 122 328 115 111 140 242 237 261 299 202 236 204 196 205 214 202 225 213 244 230 216 201 199 197 197 201
231 241 184 180 175 204 232 247 222 219 182 194 209 202 187 189 188 184 151 190 178 93 173 190 203 146 281 320 315 278 231 206 212 226 257 256 269 233 305 203 192 199 197 200 205
219 241 236 175 160 170 220 227 275 230 222 214 213 149 195 208 151 152 175 180 158 165 167 165 150 122 255 58 84 277 235 187 200 216 213 228 233 166 219 207 205 206 206 206 209